This is the latest recevied weather packets stored in our database for station/object NO3U. If no packets are shown the sender has not sent any weather packets the latest 10 day(s).
| Time | Temp. | Humidity | Pressure | Rain* | Wind** | Luminosity | Snow |
|---|---|---|---|---|---|---|---|
| 1777464659 | 12.22° C | 99% | 1011.3 hPa | 0 mm | - | 16 W/m² | - |
| 1777464354 | 12.22° C | 99% | 1011.2 hPa | 0 mm | - | 15 W/m² | - |
| 1777464050 | 12.22° C | 99% | 1011.5 hPa | 0 mm | - | 10 W/m² | - |
| 1777463740 | 12.22° C | 99% | 1011.4 hPa | 0 mm | - | 9 W/m² | - |
| 1777463435 | 12.22° C | 99% | 1011.7 hPa | 0 mm | - | 9 W/m² | - |
| 1777463131 | 12.22° C | 99% | 1012 hPa | 0 mm | - | 9 W/m² | - |
| 1777462827 | 12.22° C | 99% | 1012.2 hPa | 0 mm | - | 10 W/m² | - |
| 1777462522 | 11.67° C | 99% | 1012.1 hPa | 0 mm | - | 7 W/m² | - |
| 1777462218 | 11.67° C | 99% | 1012.2 hPa | 0 mm | - | 7 W/m² | - |
| 1777461915 | 11.67° C | 99% | 1012.2 hPa | 0 mm | - | 8 W/m² | - |
| 1777461612 | 11.67° C | 99% | 1012.3 hPa | 0 mm | - | 10 W/m² | - |
| 1777461307 | 11.67° C | 99% | 1012.4 hPa | 0 mm | - | 11 W/m² | - |
| 1777461003 | 11.67° C | 99% | 1012.3 hPa | 0 mm | - | 12 W/m² | - |
| 1777460693 | 11.67° C | 99% | 1012.4 hPa | 0 mm | - | 10 W/m² | - |
| 1777460389 | 11.67° C | 99% | 1012.2 hPa | 0 mm | - | 9 W/m² | - |
| 1777460085 | 11.67° C | 99% | 1012.2 hPa | 0 mm | - | 7 W/m² | - |
| 1777459782 | 11.67° C | 99% | 1012.1 hPa | 0 mm | - | 4 W/m² | - |
| 1777459479 | 11.67° C | 99% | 1012.3 hPa | 0 mm | - | 3 W/m² | - |
| 1777459177 | 11.11° C | 99% | 1012 hPa | 0 mm | - | 3 W/m² | - |
| 1777458874 | 11.11° C | 99% | 1012.3 hPa | 0 mm | - | 2 W/m² | - |
| 1777458571 | 11.11° C | 99% | 1012.1 hPa | 0 mm | - | 1 W/m² | - |
| 1777458267 | 11.11° C | 99% | 1012.1 hPa | 0 mm | - | 1 W/m² | - |
| 1777457963 | 11.11° C | 99% | 1011.7 hPa | 0 mm | - | 0 W/m² | - |
| 1777457659 | 11.11° C | 99% | 1011.5 hPa | 0 mm | - | 0 W/m² | - |
| 1777457358 | 11.11° C | 99% | 1011.7 hPa | 0 mm | - | 0 W/m² | - |
* Rain latest hour (hover to see other rain measurements)
** Current wind speed in m/s (hover to see current wind gust speed)